Terminal Aerodrome Forecast
Issued by NWS Louisville, KY

Home | Current Version | Previous Version | Text Only | Print | Product List | Glossary On
Versions: 1 2 3 4 5 6 7 8 9 10 11 12 13 14 15 16 17
000
FTUS43 KLMK 211500 AAB
TAFBWG
TAF AMD
KBWG 211525Z 2115/2212 25009KT P6SM BKN020 OVC100
     FM211700 30011G17KT P6SM BKN030
     FM220000 31005KT P6SM SKC=

USA.gov is the U.S. government's official web portal to all federal, state and local government web resources and services.